Alva, OK

11:18 PM CST on December 07, 2016 (GMT -0600)
Alva Regional

Weather History for KAVK - October, 2013

Change the Weather History Date:

Sunday, October 27, 2013

  Actual Average Record
Temperature  
Mean Temperature 50 °F -  
Max Temperature 69 °F 68 °F 94 °F (1950)
Min Temperature 32 °F 44 °F 22 °F (1957)
Degree Days  
Heating Degree Days 14    
Moisture  
Dew Point 27 °F    
Average Humidity 49    
Maximum Humidity 81    
Minimum Humidity 15    
Precipitation  
Precipitation 0.00 in - - ()
Sea Level Pressure  
Sea Level Pressure 30.06 in    
Wind  
Wind Speed 8 mph (SW)    
Max Wind Speed 17 mph    
Max Gust Speed 22 mph    
Visibility 10 miles    
Events      
Averages and records for this station are not official NWS values.
T = Trace of Precipitation, MM = Missing Value Source: NWS Daily Summary

Daily Weather History Graph

Daily Weather History Graph

Search for Another Location

Airport or City:

Trip Planner

Search our weather history database for the weather conditions in past years. The results will help you decide how hot, cold, wet, or windy it might be!

Date:

Astronomy

Oct. 27, 2013 Rise Set
Actual Time 7:53 AM CDT 6:42 PM CDT
Civil Twilight 7:27 AM CDT 7:09 PM CDT
Nautical Twilight 6:56 AM CDT 7:39 PM CDT
Astronomical Twilight 6:26 AM CDT 8:09 PM CDT
Moon 1:02 AM CDT (10/27) 2:43 PM CDT (10/27)
Length of Visible Light 11h 42m
Length of Day
10h 49m
Last Quarter, 43% of the Moon is Illuminated
Oct 27
Last Quarter
Nov 3
New
Nov 9
First Quarter
Nov 17
Full
Nov 25
Last Quarter

Hourly Weather History & Observations

Time (CDT) Temp. Windchill Dew Point Humidity Pressure Visibility Wind Dir Wind Speed Gust Speed Precip Events Conditions
12:05 AM 44.6 °F 42.2 °F 26.6 °F 49% 30.20 in 10.0 mi NNW 4.6 mph - N/A   Clear
12:25 AM 41.0 °F 38.0 °F 28.4 °F 61% 30.20 in 10.0 mi NNW 4.6 mph - N/A   Clear
12:45 AM 39.2 °F 35.0 °F 28.4 °F 65% 30.20 in 10.0 mi NNW 5.8 mph - N/A   Clear
1:05 AM 39.2 °F 35.9 °F 28.4 °F 65% 30.19 in 10.0 mi NNW 4.6 mph - N/A   Clear
1:30 AM 39.2 °F 37.0 °F 28.4 °F 65% 30.19 in 10.0 mi NNW 3.5 mph - N/A   Clear
1:45 AM 39.2 °F 37.0 °F 28.4 °F 65% 30.19 in 10.0 mi NNW 3.5 mph - N/A   Clear
2:10 AM 39.2 °F 35.9 °F 26.6 °F 61% 30.18 in 10.0 mi North 4.6 mph - N/A   Clear
2:25 AM 39.2 °F - 26.6 °F 61% 30.18 in 10.0 mi Calm Calm - N/A   Clear
2:45 AM 37.4 °F 34.9 °F 28.4 °F 70% 30.18 in 10.0 mi NNW 3.5 mph - N/A   Clear
3:05 AM 35.6 °F 32.8 °F 26.6 °F 70% 30.18 in 10.0 mi NW 3.5 mph - N/A   Clear
3:25 AM 33.8 °F 29.6 °F 28.4 °F 81% 30.18 in 10.0 mi NW 4.6 mph - N/A   Clear
3:50 AM 35.6 °F 30.7 °F 26.6 °F 70% 30.17 in 10.0 mi NNW 5.8 mph - N/A   Clear
4:05 AM 35.6 °F 30.7 °F 26.6 °F 70% 30.17 in 10.0 mi NW 5.8 mph - N/A   Clear
4:25 AM 35.6 °F 30.7 °F 26.6 °F 70% 30.16 in 10.0 mi NW 5.8 mph - N/A   Clear
4:45 AM 32.0 °F 28.7 °F 26.6 °F 80% 30.15 in 10.0 mi WNW 3.5 mph - N/A   Clear
5:05 AM 33.8 °F 28.6 °F 26.6 °F 75% 30.15 in 10.0 mi NW 5.8 mph - N/A   Clear
5:25 AM 32.0 °F 26.4 °F 26.6 °F 80% 30.15 in 10.0 mi WNW 5.8 mph - N/A   Clear
5:45 AM 32.0 °F 25.6 °F 26.6 °F 80% 30.15 in 10.0 mi NW 6.9 mph - N/A   Clear
6:05 AM 32.0 °F 25.6 °F 26.6 °F 80% 30.14 in 10.0 mi NW 6.9 mph - N/A   Clear
6:25 AM 32.0 °F 24.8 °F 26.6 °F 80% 30.14 in 10.0 mi WNW 8.1 mph - N/A   Clear
6:45 AM 32.0 °F 26.4 °F 26.6 °F 80% 30.14 in 10.0 mi WNW 5.8 mph - N/A   Clear
7:05 AM 32.0 °F 26.4 °F 26.6 °F 80% 30.13 in 10.0 mi West 5.8 mph - N/A   Clear
7:25 AM 32.0 °F 26.4 °F 26.6 °F 80% 30.13 in 10.0 mi West 5.8 mph - N/A   Clear
7:45 AM 32.0 °F 27.5 °F 26.6 °F 80% 30.12 in 10.0 mi West 4.6 mph - N/A   Clear
8:05 AM 32.0 °F 26.4 °F 26.6 °F 80% 30.12 in 10.0 mi WNW 5.8 mph - N/A   Clear
8:25 AM 32.0 °F 27.5 °F 26.6 °F 80% 30.12 in 10.0 mi West 4.6 mph - N/A   Clear
8:45 AM 35.6 °F 30.7 °F 28.4 °F 75% 30.12 in 10.0 mi West 5.8 mph - N/A   Clear
9:05 AM 37.4 °F 32.1 °F 30.2 °F 75% 30.13 in 10.0 mi West 6.9 mph - N/A   Clear
9:25 AM 41.0 °F 36.4 °F 32.0 °F 70% 30.13 in 10.0 mi West 6.9 mph - N/A   Clear
9:45 AM 44.6 °F 41.4 °F 32.0 °F 61% 30.13 in 10.0 mi West 5.8 mph - N/A   Clear
10:10 AM 48.2 °F - 32.0 °F 54% 30.13 in 10.0 mi WSW 9.2 mph - N/A   Clear
10:25 AM 48.2 °F - 32.0 °F 54% 30.13 in 10.0 mi SW 9.2 mph - N/A   Clear
10:50 AM 51.8 °F - 30.2 °F 44% 30.12 in 10.0 mi SW 10.4 mph - N/A   Clear
11:05 AM 53.6 °F - 30.2 °F 41% 30.12 in 10.0 mi SW 13.8 mph - N/A   Clear
11:25 AM 55.4 °F - 28.4 °F 36% 30.12 in 10.0 mi SW 12.7 mph - N/A   Clear
11:45 AM 57.2 °F - 26.6 °F 31% 30.11 in 10.0 mi SSW 10.4 mph - N/A   Clear
12:05 PM 60.8 °F - 28.4 °F 29% 30.10 in 10.0 mi SW 10.4 mph - N/A   Clear
12:25 PM 60.8 °F - 28.4 °F 29% 30.09 in 10.0 mi SW 12.7 mph - N/A   Clear
12:50 PM 62.6 °F - 28.4 °F 27% 30.08 in 10.0 mi SSW 12.7 mph - N/A   Clear
1:05 PM 62.6 °F - 28.4 °F 27% 30.06 in 10.0 mi SSW 12.7 mph 17.3 mph N/A   Clear
1:25 PM 64.4 °F - 26.6 °F 24% 30.05 in 10.0 mi South 12.7 mph 16.1 mph N/A   Clear
1:50 PM 66.2 °F - 24.8 °F 21% 30.03 in 10.0 mi SSW 11.5 mph - N/A   Clear
2:05 PM 66.2 °F - 24.8 °F 21% 30.02 in 10.0 mi SSW 13.8 mph 18.4 mph N/A   Clear
2:25 PM 68.0 °F - 24.8 °F 20% 30.01 in 10.0 mi South 15.0 mph 20.7 mph N/A   Clear
2:50 PM 68.0 °F - 23.0 °F 18% 29.99 in 10.0 mi SSW 11.5 mph - N/A   Clear
3:05 PM 68.0 °F - 23.0 °F 18% 29.99 in 10.0 mi South 15.0 mph 19.6 mph N/A   Clear
3:25 PM 68.0 °F - 23.0 °F 18% 29.98 in 10.0 mi South 17.3 mph 21.9 mph N/A   Clear
3:45 PM 69.8 °F - 23.0 °F 17% 29.97 in 10.0 mi South 17.3 mph 21.9 mph N/A   Clear
4:05 PM 69.8 °F - 23.0 °F 17% 29.96 in 10.0 mi South 15.0 mph 21.9 mph N/A   Clear
4:25 PM 69.8 °F - 23.0 °F 17% 29.96 in 10.0 mi South 16.1 mph - N/A   Clear
4:45 PM 69.8 °F - 21.2 °F 16% 29.95 in 10.0 mi South 16.1 mph - N/A   Clear
5:05 PM 69.8 °F - 23.0 °F 17% 29.94 in 10.0 mi South 15.0 mph - N/A   Clear
5:25 PM 69.8 °F - 19.4 °F 15% 29.93 in 10.0 mi South 15.0 mph - N/A   Clear
5:45 PM 68.0 °F - 23.0 °F 18% 29.93 in 10.0 mi South 11.5 mph - N/A   Clear
6:05 PM 66.2 °F - 24.8 °F 21% 29.93 in 10.0 mi South 9.2 mph - N/A   Clear
6:30 PM 62.6 °F - 26.6 °F 26% 29.93 in 10.0 mi SSE 12.7 mph - N/A   Clear
6:50 PM 59.0 °F - 26.6 °F 29% 29.93 in 10.0 mi South 13.8 mph - N/A   Clear
7:05 PM 57.2 °F - 26.6 °F 31% 29.93 in 10.0 mi South 11.5 mph - N/A   Clear
7:30 PM 55.4 °F - 28.4 °F 36% 29.94 in 10.0 mi South 11.5 mph - N/A   Clear
7:45 PM 53.6 °F - 28.4 °F 38% 29.94 in 10.0 mi South 11.5 mph - N/A   Clear
8:05 PM 53.6 °F - 28.4 °F 38% 29.94 in 10.0 mi South 11.5 mph - N/A   Clear
8:25 PM 51.8 °F - 28.4 °F 41% 29.94 in 10.0 mi South 11.5 mph - N/A   Clear
8:45 PM 50.0 °F - 30.2 °F 47% 29.94 in 10.0 mi South 11.5 mph - N/A   Clear
9:05 PM 50.0 °F - 30.2 °F 47% 29.94 in 10.0 mi South 11.5 mph - N/A   Clear
9:25 PM 48.2 °F - 30.2 °F 50% 29.94 in 10.0 mi South 10.4 mph - N/A   Clear
9:45 PM 48.2 °F - 30.2 °F 50% 29.94 in 10.0 mi SSE 10.4 mph - N/A   Clear
10:05 PM 46.4 °F 41.1 °F 30.2 °F 53% 29.94 in 10.0 mi SSE 11.5 mph - N/A   Clear
10:25 PM 50.0 °F - 30.2 °F 47% 29.95 in 10.0 mi SSE 9.2 mph - N/A   Clear
10:45 PM 48.2 °F - 30.2 °F 50% 29.95 in 10.0 mi SSE 11.5 mph - N/A   Clear
11:05 PM 46.4 °F 41.1 °F 30.2 °F 53% 29.95 in 10.0 mi SSE 11.5 mph - N/A   Clear
11:25 PM 46.4 °F 40.7 °F 32.0 °F 57% 29.95 in 10.0 mi SSE 12.7 mph - N/A   Clear
11:45 PM 46.4 °F 41.1 °F 32.0 °F 57% 29.95 in 10.0 mi South 11.5 mph - N/A   Clear